When you browse on this site, cookies collect data to enhance your experience and personalize the content and advertising you see.
Visit our Privacy Policy to learn more. By continuing to use the site, you agree to this use of cookies and data.
  • In Hungary
  • List of Countries
  • For 7 days
  • Water Temperature
  • Weather Map
  • News
  • Weather Widgets
  • user-avatar
    Login

    Hourly Weather Pietrusin

    Today, 16 September, Monday

    Time Temperature Precipitation Wind Pressure Humidity
    00:00 +16°C° 0 mm 5 mps 750 mmHg 60%
    01:00 +16°C° 0 mm 5 mps 749 mmHg 61%
    02:00 +16°C° 0 mm 5 mps 749 mmHg 60%
    03:00 +16°C° 0 mm 5 mps 749 mmHg 60%
    04:00 +16°C° 0 mm 5 mps 749 mmHg 60%
    05:00 +16°C° 0 mm 5 mps 749 mmHg 61%
    06:00 +15°C° 0 mm 5 mps 750 mmHg 63%
    07:00 +15°C° 0 mm 5 mps 750 mmHg 64%
    08:00 +15°C° 0 mm 6 mps 750 mmHg 60%
    09:00 +16°C° 0 mm 6 mps 750 mmHg 56%
    10:00 +16°C° 0 mm 7 mps 750 mmHg 52%
    11:00 +16°C° 0 mm 7 mps 750 mmHg 51%
    12:00 +16°C° 0 mm 7 mps 750 mmHg 49%
    13:00 +17°C° 0 mm 7 mps 750 mmHg 48%
    14:00 +16°C° 0 mm 7 mps 750 mmHg 48%
    15:00 +16°C° 0 mm 6 mps 750 mmHg 48%
    16:00 +16°C° 0 mm 6 mps 749 mmHg 48%
    17:00 +15°C° 0 mm 5 mps 749 mmHg 53%
    18:00 +13°C° 0 mm 5 mps 749 mmHg 57%
    19:00 +12°C° 0 mm 5 mps 749 mmHg 61%
    20:00 +12°C° 0 mm 4 mps 749 mmHg 64%
    21:00 +11°C° 0 mm 4 mps 749 mmHg 68%
    22:00 +11°C° 0 mm 4 mps 749 mmHg 71%
    23:00 +11°C° 0 mm 4 mps 749 mmHg 70%

    Tomorrow, 17 September, Tuesday

    Time Temperature Precipitation Wind Pressure Humidity
    00:00 +11°C° 0 mm 4 mps 749 mmHg 68%
    01:00 +12°C° 0 mm 4 mps 749 mmHg 67%
    02:00 +11°C° 0 mm 4 mps 749 mmHg 70%
    03:00 +10°C° 0 mm 4 mps 748 mmHg 73%
    04:00 +8°C° 0 mm 4 mps 748 mmHg 76%
    05:00 +9°C° 0 mm 5 mps 748 mmHg 74%
    06:00 +9°C° 0 mm 5 mps 748 mmHg 72%
    07:00 +10°C° 0 mm 6 mps 748 mmHg 71%
    08:00 +11°C° 0 mm 6 mps 748 mmHg 65%
    09:00 +12°C° 0 mm 7 mps 747 mmHg 60%
    10:00 +14°C° 0 mm 7 mps 747 mmHg 55%
    11:00 +13°C° 0.1 mm 8 mps 747 mmHg 54%
    12:00 +15°C° 0.1 mm 8 mps 746 mmHg 53%
    13:00 +15°C° 0.1 mm 8 mps 745 mmHg 52%
    14:00 +13°C° 0.1 mm 8 mps 745 mmHg 53%
    15:00 +13°C° 0.1 mm 8 mps 744 mmHg 54%
    16:00 +13°C° 0.1 mm 8 mps 744 mmHg 55%
    17:00 +12°C° 0.7 mm 8 mps 744 mmHg 65%
    18:00 +10°C° 0.7 mm 7 mps 744 mmHg 74%
    19:00 +9°C° 0.7 mm 7 mps 744 mmHg 84%
    20:00 +8°C° 0.8 mm 7 mps 744 mmHg 82%
    21:00 +8°C° 0.8 mm 7 mps 744 mmHg 80%
    22:00 +8°C° 0.8 mm 6 mps 744 mmHg 78%
    23:00 +6°C° 0.1 mm 7 mps 744 mmHg 79%

    Day after tomorrow, 18 September, Wednesday

    Time Temperature Precipitation Wind Pressure Humidity
    00:00 +5°C° 0.1 mm 8 mps 744 mmHg 79%
    01:00 +5°C° 0.1 mm 8 mps 744 mmHg 80%
    02:00 +5°C° 0 mm 8 mps 745 mmHg 81%
    03:00 +3°C° 0 mm 9 mps 745 mmHg 81%
    04:00 +3°C° 0 mm 9 mps 746 mmHg 82%
    05:00 +5°C° 0 mm 9 mps 746 mmHg 81%
    06:00 +6°C° 0 mm 9 mps 747 mmHg 80%
    07:00 +6°C° 0 mm 9 mps 748 mmHg 78%
    08:00 +7°C° 0 mm 9 mps 749 mmHg 73%
    09:00 +8°C° 0 mm 9 mps 749 mmHg 68%
    10:00 +10°C° 0 mm 9 mps 750 mmHg 64%
    11:00 +10°C° 0 mm 9 mps 750 mmHg 60%
    12:00 +11°C° 0 mm 9 mps 750 mmHg 57%
    13:00 +12°C° 0 mm 8 mps 750 mmHg 53%
    14:00 +12°C° 0 mm 8 mps 750 mmHg 52%
    15:00 +12°C° 0 mm 8 mps 750 mmHg 52%
    16:00 +13°C° 0 mm 8 mps 751 mmHg 51%
    17:00 +11°C° 0 mm 7 mps 751 mmHg 56%
    18:00 +10°C° 0 mm 6 mps 751 mmHg 61%
    19:00 +9°C° 0 mm 6 mps 752 mmHg 66%
    20:00 +9°C° 0.1 mm 6 mps 752 mmHg 68%
    21:00 +8°C° 0.1 mm 5 mps 752 mmHg 71%
    22:00 +8°C° 0.1 mm 5 mps 752 mmHg 74%
    23:00 +8°C° 0.6 mm 5 mps 752 mmHg 77%

    19 September, Thursday

    Time Temperature Precipitation Wind Pressure Humidity
    00:00 +7°C° 0.6 mm 5 mps 753 mmHg 80%
    01:00 +7°C° 0.6 mm 5 mps 753 mmHg 83%
    02:00 +7°C° 0.4 mm 5 mps 753 mmHg 83%
    03:00 +6°C° 0.4 mm 4 mps 753 mmHg 83%
    04:00 +6°C° 0.4 mm 4 mps 753 mmHg 83%
    05:00 +6°C° 0 mm 4 mps 753 mmHg 84%
    06:00 +6°C° 0 mm 5 mps 753 mmHg 84%
    07:00 +7°C° 0 mm 5 mps 753 mmHg 84%
    08:00 +8°C° 0 mm 5 mps 754 mmHg 79%
    09:00 +9°C° 0 mm 5 mps 754 mmHg 74%
    10:00 +11°C° 0 mm 6 mps 754 mmHg 69%
    11:00 +11°C° 0.4 mm 6 mps 754 mmHg 65%
    12:00 +12°C° 0.4 mm 7 mps 754 mmHg 61%
    13:00 +14°C° 0.4 mm 7 mps 754 mmHg 56%
    14:00 +14°C° 0.1 mm 7 mps 754 mmHg 56%
    15:00 +12°C° 0.1 mm 7 mps 754 mmHg 56%
    16:00 +13°C° 0.1 mm 6 mps 754 mmHg 55%
    17:00 +11°C° 0.1 mm 6 mps 755 mmHg 61%
    18:00 +9°C° 0.1 mm 5 mps 755 mmHg 67%
    19:00 +8°C° 0.1 mm 4 mps 756 mmHg 74%
    20:00 +7°C° 0 mm 4 mps 756 mmHg 77%
    21:00 +6°C° 0 mm 4 mps 757 mmHg 80%
    22:00 +7°C° 0 mm 3 mps 757 mmHg 83%
    23:00 +5°C° 0 mm 3 mps 757 mmHg 84%

    20 September, Friday

    Time Temperature Precipitation Wind Pressure Humidity
    00:00 +5°C° 0 mm 3 mps 757 mmHg 85%
    01:00 +4°C° 0 mm 3 mps 758 mmHg 87%
    02:00 +4°C° 0 mm 3 mps 758 mmHg 86%
    03:00 +4°C° 0 mm 3 mps 758 mmHg 86%
    04:00 +3°C° 0 mm 3 mps 758 mmHg 86%
    05:00 +4°C° 0 mm 3 mps 758 mmHg 82%
    06:00 +5°C° 0 mm 4 mps 758 mmHg 79%
    07:00 +6°C° 0 mm 4 mps 758 mmHg 75%
    08:00 +8°C° 0 mm 4 mps 758 mmHg 68%
    09:00 +10°C° 0 mm 4 mps 758 mmHg 60%
    10:00 +12°C° 0 mm 5 mps 759 mmHg 53%
    11:00 +13°C° 0 mm 5 mps 758 mmHg 50%
    12:00 +13°C° 0 mm 5 mps 758 mmHg 47%
    13:00 +14°C° 0 mm 5 mps 758 mmHg 43%
    14:00 +14°C° 0 mm 4 mps 758 mmHg 45%
    15:00 +13°C° 0 mm 4 mps 757 mmHg 47%
    16:00 +13°C° 0 mm 4 mps 757 mmHg 49%
    17:00 +11°C° 0 mm 3 mps 757 mmHg 53%
    18:00 +10°C° 0 mm 3 mps 757 mmHg 58%
    19:00 +9°C° 0 mm 2 mps 757 mmHg 62%
    20:00 +9°C° 0 mm 2 mps 757 mmHg 63%
    21:00 +9°C° 0 mm 3 mps 757 mmHg 63%
    22:00 +8°C° 0 mm 3 mps 757 mmHg 64%
    23:00 +9°C° 0 mm 3 mps 757 mmHg 63%

    21 September, Saturday

    Time Temperature Precipitation Wind Pressure Humidity
    00:00 +10°C° 0 mm 4 mps 757 mmHg 62%
    01:00 +9°C° 0 mm 5 mps 757 mmHg 61%
    02:00 +9°C° 0.1 mm 5 mps 756 mmHg 63%
    03:00 +9°C° 0.1 mm 5 mps 756 mmHg 65%
    04:00 +9°C° 0.1 mm 5 mps 756 mmHg 67%
    05:00 +10°C° 0 mm 5 mps 756 mmHg 68%
    06:00 +10°C° 0 mm 5 mps 756 mmHg 70%
    07:00 +10°C° 0 mm 5 mps 756 mmHg 72%
    08:00 +12°C° 0 mm 5 mps 756 mmHg 73%
    09:00 +13°C° 0 mm 5 mps 756 mmHg 74%
    10:00 +14°C° 0 mm 5 mps 757 mmHg 75%
    11:00 +15°C° 0.1 mm 5 mps 756 mmHg 73%
    12:00 +15°C° 0.1 mm 5 mps 756 mmHg 71%
    13:00 +16°C° 0.1 mm 5 mps 756 mmHg 69%
    14:00 +17°C° 0.1 mm 4 mps 756 mmHg 69%
    15:00 +17°C° 0.1 mm 4 mps 756 mmHg 70%
    16:00 +17°C° 0.1 mm 4 mps 756 mmHg 70%
    17:00 +16°C° 0.1 mm 3 mps 756 mmHg 76%
    18:00 +15°C° 0.1 mm 2 mps 756 mmHg 82%
    19:00 +13°C° 0.1 mm 1 mps 757 mmHg 87%
    20:00 +13°C° 0 mm 1 mps 757 mmHg 89%
    21:00 +12°C° 0 mm 1 mps 757 mmHg 90%
    22:00 +12°C° 0 mm 1 mps 757 mmHg 91%
    23:00 +12°C° 0 mm 1 mps 757 mmHg 92%
    Show more